GW1952 Weather Reports


Display with metric or nautical units.
time (UTC)temp
F
wind
direction
speed
MPH
gust
MPH
rain 1hr
in
rain 24hr
in
rain mn
in
humidity
%
barometer
mb
20260503003117 67 151 3.0 7.0 0.00 0.00 0.00 31 1015.4
20260503001621 68 51 2.0 7.0 0.00 0.00 0.00 31 1015.5
20260503000051 68 319 2.0 7.0 0.00 0.00 0.00 31 1015.6
20260502234555 67 117 3.0 8.0 0.00 0.00 0.00 32 1015.8
20260502233051 67 102 4.0 9.0 0.00 0.00 0.00 32 1016.0
20260502231554 67 51 4.0 9.0 0.00 0.00 0.00 32 1016.1
20260502230054 67 22 3.0 11.0 0.00 0.00 0.00 32 1016.1
20260502224556 67 93 3.0 8.0 0.00 0.00 0.00 32 1016.3
20260502223056 68 70 2.0 7.0 0.00 0.00 0.00 32 1016.5
20260502221552 67 77 2.0 9.0 0.00 0.00 0.00 33 1016.7
20260502220053 67 266 0.0 10.0 0.00 0.00 0.00 33 1017.0
20260502214549 66 348 6.0 11.0 0.00 0.00 0.00 34 1017.2
20260502213104 66 294 2.0 9.0 0.00 0.00 0.00 33 1017.5
20260502211554 66 19 1.0 9.0 0.00 0.00 0.00 33 1017.6
20260502210054 66 333 4.0 8.0 0.00 0.00 0.00 33 1017.6
20260502204557 64 16 4.0 12.0 0.00 0.00 0.00 37 1017.7
20260502203053 65 350 5.0 14.0 0.00 0.00 0.00 35 1017.8
20260502201552 65 72 5.0 10.0 0.00 0.00 0.00 34 1018.0
20260502200119 66 266 1.0 7.0 0.00 0.00 0.00 35 1018.1
20260502194605 64 111 3.0 9.0 0.00 0.00 0.00 36 1018.2
20260502193050 65 29 2.0 10.0 0.00 0.00 0.00 35 1018.4
20260502191558 65 332 2.0 11.0 0.00 0.00 0.00 34 1018.4
20260502190055 64 298 6.0 14.0 0.00 0.00 0.00 35 1018.5
20260502184554 65 9 4.0 11.0 0.00 0.00 0.00 35 1018.6
20260502183052 64 325 4.0 11.0 0.00 0.00 0.00 36 1018.7
20260502181552 64 142 8.0 14.0 0.00 0.00 0.00 36 1019.0
20260502163053 61 49 8.0 16.0 0.00 0.00 0.00 39 1019.4
20260502161552 60 47 6.0 17.0 0.00 0.00 0.00 41 1019.5
20260502151609 57 67 8.0 14.0 0.00 0.00 0.00 43 1019.3
20260502150125 56 99 6.0 11.0 0.00 0.00 0.00 45 1019.2
20260502130105 46 328 2.0 5.0 0.00 0.00 0.00 58 1018.3
20260502123052 46 275 2.0 5.0 0.00 0.00 0.00 55 1017.8
20260502121559 46 338 2.0 4.0 0.00 0.00 0.00 54 1017.7
20260502120112 45 19 2.0 6.0 0.00 0.00 0.00 55 1017.5
20260502114557 45 314 3.0 8.0 0.00 0.00 0.00 54 1017.4
20260502113113 45 309 4.0 8.0 0.00 0.00 0.00 54 1017.2
20260502111555 46 294 7.0 10.0 0.00 0.00 0.00 53 1016.9
20260502104552 46 292 10.0 12.0 0.00 0.00 0.00 53 1016.5
20260502103110 46 275 3.0 7.0 0.00 0.00 0.00 52 1016.3
20260502101554 46 262 5.0 9.0 0.00 0.00 0.00 51 1016.2
20260502090107 47 269 5.0 8.0 0.00 0.00 0.00 47 1015.4
20260502070056 49 243 3.0 7.0 0.00 0.00 0.00 40 1015.1
20260502064554 49 292 4.0 10.0 0.00 0.00 0.00 41 1015.2
20260502063115 48 279 4.0 10.0 0.00 0.00 0.00 42 1015.0
20260502061550 48 281 6.0 9.0 0.00 0.00 0.00 43 1014.9
20260502054607 48 266 4.0 7.0 0.00 0.00 0.00 41 1014.7
20260502053101 49 243 5.0 7.0 0.00 0.00 0.00 41 1014.7
20260502051554 49 266 4.0 7.0 0.00 0.00 0.00 40 1014.7
20260502050057 49 296 4.0 8.0 0.00 0.00 0.00 39 1014.5
20260502044553 50 294 4.0 8.0 0.00 0.00 0.00 38 1014.6
20260502043057 52 259 6.0 10.0 0.00 0.00 0.00 35 1014.6
20260502041552 54 275 4.0 6.0 0.00 0.00 0.00 33 1014.7
20260502040056 55 261 3.0 7.0 0.00 0.00 0.00 32 1014.7
20260502034552 57 266 4.0 6.0 0.00 0.00 0.00 29 1014.7
20260502033053 58 248 4.0 8.0 0.00 0.00 0.00 29 1014.6
20260502031556 61 288 3.0 8.0 0.00 0.00 0.00 26 1014.4
20260502030107 63 216 6.0 8.0 0.00 0.00 0.00 25 1014.1
20260502024554 64 232 5.0 10.0 0.00 0.00 0.00 24 1014.0
20260502023102 64 215 5.0 7.0 0.00 0.00 0.00 24 1013.9
20260502021555 65 237 3.0 7.0 0.00 0.00 0.00 23 1013.8
20260502020056 67 237 3.0 7.0 0.00 0.00 0.00 21 1013.8
20260502014549 69 268 7.0 12.0 0.00 0.00 0.00 20 1013.7
20260502013059 72 298 9.0 14.0 0.00 0.00 0.00 18 1013.8
20260502011553 74 299 7.0 13.0 0.00 0.00 0.00 17 1013.9
20260502010055 74 286 9.0 16.0 0.00 0.00 0.00 16 1013.9
20260502004558 74 267 13.0 18.0 0.00 0.00 0.00 16 1013.9